Regional Weather Roundup
Issued by NWS Burlington, VT

Home | Current Version | Previous Version | Text Only | Print | Product List | Glossary On
Versions: 1 2 3 4 5 6 7 8 9 10 11 12 13 14 15 16 17 18 19 20 21 22 23 24 25 26 27 28 29 30 31 32 33 34 35 36 37 38 39 40 41 42 43 44 45 46 47 48 49 50
000
ASUS41 KBTV 291030
RWRBTV
VERMONT REGIONAL WEATHER ROUNDUP
NATIONAL WEATHER SERVICE BURLINGTON VT
600 AM EDT THU JUN 29 2017

NOTE: "FAIR" INDICATES FEW OR NO CLOUDS BELOW 12,000 FEET WITH NO
SIGNIFICANT WEATHER AND/OR OBSTRUCTIONS TO VISIBILITY.

* THESE REPORTS ARE NOT UNDER NWS QUALITY CONTROL AND/OR DO NOT
  REPORT WEATHER SUCH AS PRECIPITATION AND FOG.

VTZ001>019-291100-
_____VERMONT_____


CITY           SKY/WX    TMP DP  RH WIND       PRES   REMARKS
BURLINGTON     CLOUDY    64  50  60 S10       30.05S
MONTPELIER     FOG       49  49 100 NE3       30.11F VSB 3/4
MORRISVILLE    FOG       50  50 100 CALM      30.09S VSB 1/4
ST. JOHNSBURY*   N/A     49  49 100 MISG      30.08S
LYNDONVILLE*   FOG       49  48  97 CALM      30.11S VSB<1/4
MIDDLEBURY*    FAIR      59  52  79 CALM      30.08S
RUTLAND*       CLOUDY    54  50  86 SE8       30.10F
SPRINGFIELD    CLOUDY    52  49  89 CALM      30.12R
HIGHGATE*      FAIR      61  51  70 S3        30.04S
NEWPORT*       FAIR      52  51  95 S3        30.08S
BENNINGTON     PTCLDY    53  51  93 CALM      30.12R
ISLAND POND*     N/A     46 N/A N/A CALM        N/A
GALLUP MILLS*    N/A     45 N/A N/A MISG        N/A
UNION VILLAGE*   N/A     50 N/A N/A MISG        N/A
MT. MANSFIELD*   N/A     52 N/A N/A W23         N/A

_____LAKE CHAMPLAIN_____


CITY           SKY/WX    TMP DP  RH WIND       PRES   REMARKS
BURTON ISLAND*   N/A     63  54  72 S10         N/A
COLCHESTER RF*   N/A     63  55  77 S16         N/A
DIAMOND ISL*     N/A     61  52  72 SW7         N/A

$$

NYZ007-026>031-035-052-083-087-291100-
_____NORTHERN NEW YORK_____


CITY           SKY/WX    TMP DP  RH WIND       PRES   REMARKS
PLATTSBURGH    CLOUDY    55  53  93 CALM      30.04R
SARANAC LAKE   MOCLDY    51  50  96 W5        30.07S
MASSENA        CLOUDY    58  54  86 SW6       30.03R
OGDENSBURG*    FAIR      60  55  83 S3        30.03S
POTSDAM*       MOCLDY    63  54  72 SW5       30.04S
STARK FALLS*     N/A     63 N/A N/A S3          N/A
WATERTOWN      LGT RAIN  64  57  78 SW12G20   30.06R
FT DRUM        DRIZZLE   64  54  68 SW13      30.06R
ALBANY         CLOUDY    62  53  72 S5        30.11R
GLENS FALLS    CLOUDY    54  52  93 CALM      30.09R

$$
NHZ002-005-011-291100-
_____NEW HAMPSHIRE_____


CITY           SKY/WX    TMP DP  RH WIND       PRES   REMARKS
LEBANON        FOG       53  53 100 CALM      30.10S VSB 1/4
KEENE          CLOUDY    51  51 100 CALM      30.13R
MT WASHINGTON  FOG       39  39 100 W44         N/A  VSB 0   WCI  25
PLYMOUTH       FOG       50  49  97 CALM      30.11S VSB 3/4
WHITEFIELD     PTCLDY    46  44  93 CALM      30.10S FOG

$$

_____REGIONAL QUEBEC LOCATIONS_____


CITY           SKY/WX    TMP DP  RH WIND       PRES   REMARKS
MONTREAL       MOCLDY    61  52  72 SW10      30.01R
QUEBEC CITY    MOCLDY    55  55 100 SW3       30.00S
SHERBROOKE     MOCLDY    50  50 100 E2        30.05R

_____REGIONAL ONTARIO LOCATIONS_____


CITY           SKY/WX    TMP DP  RH WIND       PRES   REMARKS
OTTAWA         CLOUDY    59  57  94 S7        30.00S

______KEY______
VSB  - VISIBILITY IN MILES
WCI  - WIND CHILL INDEX
HX   - HEAT INDEX
$$
NNNN



USA.gov is the U.S. government's official web portal to all federal, state and local government web resources and services.